Location: Sinnemahoning State Park
(41.4031°N, 78.0230°W)
Time: 18:48:27
(UTC-04:00)

Daily predictions for brighter satellites

Satellite Brightness Start Highest point End
(mag) Time Altitude Azimuth Time Altitude Azimuth Time Altitude Azimuth
H-2A R/B 4.1 21:03:27 10° E 21:06:10 14° ENE 21:08:52 10° NNE
Meteor 1-29 3.8 21:10:37 10° NNE 21:13:46 31° E 21:16:54 10° SSE
Cosmos 2150 Rocket 4.2 21:08:50 10° SSW 21:14:13 81° WNW 21:19:33 10° NNE
Cosmos 1703 Rocket 4.0 21:10:02 10° N 21:14:17 45° ENE 21:18:28 10° SSE
Cosmos 1470 Rocket 4.4 21:10:01 10° SSW 21:14:24 56° W 21:18:49 10° N
Cosmos 2298 Rocket 4.4 21:09:37 10° SSW 21:14:53 70° WNW 21:20:12 10° NNE
Meteor 2-3 Rocket 3.7 21:13:39 10° S 21:19:22 77° E 21:25:02 10° NNE
Cosmos 2082 Rocket 4.2 21:15:56 10° NW 21:20:34 27° WSW 21:25:13 10° SSW
SJ-11-01 4.3 21:16:18 10° SSE 21:21:02 84° ENE 21:25:46 10° NNW
Cosmos 1408 3.9 21:18:28 10° SE 21:21:26 23° E 21:24:26 10° NE
Meteor 1-26 Rocket 4.4 21:15:46 10° N 21:21:26 84° W 21:27:11 10° S
Milstar 3 4.5 21:12:18 10° SW 21:22:56 29° S 21:29:45 10° ESE
Cosmos 1782 3.7 21:22:24 10° NNE 21:26:01 31° ENE 21:29:11 12° SE
ERS-1 Rocket 3.5 21:23:41 10° SE 21:28:27 44° ENE 21:33:14 10° N
NOSS 3-2 (A) 4.4 21:24:30 10° SW 21:30:23 53° NW 21:36:53 10° NNE
Cosmos 2344 4.2 21:24:40 10° S 21:31:22 34° ESE 21:38:26 10° NE
Cosmos 1825 3.1 21:28:21 10° SSE 21:31:39 29° E 21:34:56 10° NNE
Cosmos 1869 Rocket 3.6 21:28:55 10° S 21:33:08 55° E 21:37:24 10° NNE
BREEZE-M DEB (TANK) 3.8 21:32:02 10° NW 21:34:44 38° NNE 21:42:52 10° E
Helios 1B rocket 2.4 21:33:03 10° NNE 21:37:11 84° ESE 21:41:17 10° SSW
Cosmos 2084 3.2 21:34:17 10° NW 21:38:08 81° NE 21:41:16 16° SE
USA 215 3.6 21:35:07 11° ESE 21:41:18 60° NE 21:47:44 10° NW
MetOp-A 4.4 21:40:51 13° SSE 21:45:31 55° ENE 21:50:45 10° N
Cosmos 1862 4.5 21:43:53 17° SE 21:45:52 25° E 21:49:10 10° NE
Lacrosse 4 Rocket 2.6 21:42:32 10° N 21:46:36 32° NE 21:49:28 16° ESE
Cosmos 1892 4.3 21:45:08 10° SSW 21:48:44 38° WNW 21:52:20 10° N
Cosmos 2221 Rocket 3.5 21:44:27 10° N 21:48:54 76° E 21:52:52 13° SSE
NOSS 3-2 (C) 4.5 21:45:15 10° WSW 21:51:07 51° NW 21:57:36 10° NNE
ISS -3.1 21:49:05 10° WSW 21:52:17 56° NNW 21:55:30 10° NE
Cosmos 1943 Rocket 2.2 21:47:27 10° S 21:52:54 57° ESE 21:58:20 10° NNE
Terra 3.7 21:54:15 12° E 21:56:30 17° ENE 21:59:28 10° NNE
Cosmos 1634 Rocket 4.3 21:52:53 10° NNW 21:59:09 70° W 22:05:25 10° S
deb Kosmos-1763 4.4 21:56:06 10° N 21:59:48 54° ENE 22:01:44 25° SE
Cosmos 2263 4.2 21:56:35 10° SSW 22:02:21 86° ESE 22:08:08 10° NNE
Tiangong 2 2.6 21:59:38 10° W 22:02:23 26° SSW 22:03:23 21° S
NOAA 11 4.2 21:58:58 13° SSE 22:03:53 87° WSW 22:09:25 10° NNW
SPOT 1/Viking Rocket 4.2 22:00:53 20° SE 22:03:57 41° ENE 22:08:49 10° N
CENTAUR R/B 2.4 21:59:18 10° SSW 22:05:16 79° ESE 22:12:06 10° NE
Cosmos 372 Rocket 3.9 22:00:49 10° S 22:05:54 70° ESE 22:11:00 10° NNE
Cosmos 1340 2.8 22:03:11 10° N 22:06:57 59° E 22:08:45 28° SSE
BREEZE M DEB (TANK) 4.1 21:55:06 10° SW 22:09:25 83° SSE 22:13:24 10° ENE
COSMOS 2455 3.6 22:05:01 10° SW 22:10:54 56° WNW 22:16:50 10° NNE
Nadezhda 4 Rocket 4.3 22:06:49 19° SSE 22:10:58 45° E 22:16:46 10° NNE
SPOT 5 3.2 22:08:10 21° SSE 22:11:42 65° ENE 22:16:57 10° N
Cosmos 1269 Rocket 4.0 22:06:24 10° NNW 22:11:42 75° ENE 22:14:56 24° SSE
CZ-4B DEB 4.4 22:09:44 11° SSW 22:12:10 27° W 22:14:44 10° NW
Cosmos 2369 Rocket 3.0 22:09:02 10° SW 22:14:34 55° WNW 22:20:11 10° NNE
Cosmos 1125 Rocket 3.6 22:11:12 10° SSW 22:16:27 79° WNW 22:21:42 10° NNE
H-2A R/B 4.0 22:16:52 13° E 22:17:53 14° ENE 22:20:05 10° NNE
YAOGAN 11 4.2 22:16:37 27° SSE 22:19:03 70° ENE 22:23:33 10° N
Cosmos 1833 4.3 22:15:06 10° NNW 22:20:53 68° ENE 22:24:00 28° SE
Cosmos 1606 3.1 22:17:44 10° NNW 22:21:28 57° W 22:23:47 21° SSW
Lacrosse 5 rocket 2.5 22:21:30 10° WSW 22:24:52 38° NW 22:28:20 10° NNE
USA 245 4.5 22:21:01 20° SSE 22:25:26 88° W 22:31:50 10° NNW
Shenzhou-11 Module 4.4 22:24:10 10° WSW 22:25:36 13° SW 22:25:36 13° SW
Cosmos 2279 Rocket 4.3 22:26:46 10° NNW 22:32:57 64° W 22:38:02 16° S
TRAILBLAZER 4.4 22:32:39 10° SSW 22:37:09 74° ESE 22:41:43 10° NE
ATLAS 5 CENTAUR R/B 2.4 22:31:46 10° NW 22:37:49 80° WSW 22:41:08 31° SSE
Cosmos 1908 Rocket 4.3 22:38:32 34° ESE 22:38:53 34° E 22:42:55 10° NNE
Cosmos 1867 4.2 22:34:32 10° NNW 22:39:48 46° NE 22:42:05 30° ESE
Meteor 1-27 Rocket 3.8 22:34:21 10° NNW 22:40:08 81° W 22:43:17 27° S
GPS 2-04 Rocket1 4.1 22:39:56 10° WSW 22:42:02 22° SW 22:42:02 22° SW
H-2A R/B 2.1 22:42:09 31° S 22:44:53 83° WSW 22:50:15 10° NNW
Cosmos 494 Rocket 4.2 22:42:40 10° NNW 22:47:49 56° ENE 22:49:23 40° ESE
Intercosmos 25 Rocket 4.2 22:41:27 10° N 22:48:52 85° E 22:50:46 39° SSE
ARGOS 3.8 22:47:36 21° SSW 22:50:58 49° W 22:56:10 10° NNW
Cosmos 1656 Rocket 3.5 22:48:00 23° SSW 22:51:31 77° ESE 22:57:04 10° NNE
Cosmos 1733 Rocket 3.7 23:01:47 26° SW 23:03:53 50° W 23:08:06 10° N
CZ-4B R/B 4.4 23:01:20 10° NE 23:05:10 29° E 23:05:10 29° E
Cosmos 1782 Rocket 4.3 23:06:36 38° ENE 23:06:36 38° ENE 23:10:18 10° NNE
Sich 1 Rocket 3.4 23:12:21 71° SE 23:12:40 76° E 23:17:06 10° N
Cosmos 1655 Rocket 4.3 23:13:17 41° ESE 23:14:25 45° E 23:20:18 10° NNE
Landsat 7 4.2 23:17:28 44° SSW 23:18:37 56° W 23:23:19 10° NNW
Cosmos 2227 Rocket 3.4 23:18:16 10° N 23:23:10 29° NE 23:24:44 25° E
Meteor 1-14 Rocket 4.2 23:22:21 51° S 23:23:56 80° E 23:29:46 10° NNE
CZ-2C R/B 4.3 23:20:14 10° NE 23:22:58 19° ENE 23:22:58 19° ENE
USA 215 3.9 23:22:28 34° SSW 23:24:25 42° SW 23:30:36 10° WNW
Meteor 2-20 Rocket 4.4 23:22:12 39° SSW 23:24:40 82° W 23:30:50 10° N
Lacrosse 4 Rocket 3.0 23:21:26 10° NW 23:25:12 27° WSW 23:25:48 26° WSW
Cosmos 1975 Rocket 3.3 23:23:49 10° N 23:28:04 60° ENE 23:28:04 60° ENE
Cosmos 2219 3.1 23:23:29 10° NNW 23:29:17 87° ENE 23:30:23 60° SSE
ISS -0.8 23:27:05 10° NW 23:29:17 17° NNW 23:31:30 10° NNE
Cosmos 2026 Rocket 3.9 23:28:05 51° S 23:29:43 79° E 23:35:59 10° N
SL-19 R/B 4.4 23:26:10 10° NNE 23:32:16 87° ESE 23:34:17 46° SSW
Terra 2.1 23:33:08 51° SW 23:33:46 56° W 23:38:28 10° NNW
Cosmos 1812 3.2 23:30:06 10° N 23:33:20 59° N 23:33:20 59° N
ATLAS CENTAUR R/B 2.0 23:36:08 47° NNE 23:36:08 47° NNE 23:38:57 10° NNE
CARTOSAT-1 4.1 23:36:19 47° WSW 23:36:32 47° W 23:40:44 10° NNW
BREEZE-M DEB (TANK) 3.2 23:36:02 60° SSE 23:36:34 64° SE 23:49:12 10° ENE
Cosmos 1943 Rocket 4.4 23:32:42 10° WSW 23:37:01 22° NW 23:41:20 10° N
Cosmos 2251 Rocket 3.7 23:35:10 10° NNW 23:40:19 60° WSW 23:40:56 55° SW
Cosmos 1378 Rocket 4.1 23:37:34 10° NNW 23:41:52 51° W 23:42:02 50° WSW
Gbstr 26 Del rocket 4.1 23:39:36 10° NW 23:43:34 34° NNE 23:44:06 32° NE
Cosmos 1417 Rocket 4.4 23:38:43 10° N 23:45:01 78° E 23:46:11 60° SSE
Cosmos 2344 4.5 23:37:58 10° WSW 23:45:23 50° NW 23:53:54 10° NNE
SME Rocket 4.4 23:43:24 49° S 23:45:26 79° WSW 23:54:53 10° NNW
ARGOS Delta rocket 3.7 23:42:13 10° NNE 23:46:12 68° NE 23:46:12 68° NE
Meteor 2-11 Rocket 4.3 23:41:23 10° N 23:47:33 76° E 23:48:29 63° SE
Cosmos 1428 Rocket 4.4 23:46:28 60° SSE 23:47:37 77° E 23:53:56 10° N
CZ-4C R/B 3.9 23:50:08 59° NNE 23:50:08 59° NNE 23:53:40 10° N
S3M 3.9 23:46:01 10° N 23:52:08 68° E 23:52:56 61° ESE
H-2A R/B 2.7 23:53:59 46° WNW 23:53:59 46° WNW 23:57:29 10° NNW
GEOS 3 Rocket 4.0 23:54:47 47° WSW 23:54:51 48° WSW 23:59:54 10° NW
Cosmos 405 Rocket 3.8 23:51:19 10° NNW 23:53:54 41° NW 23:53:54 41° NW
Okean 1 4.1 23:51:54 10° N 23:54:53 48° N 23:54:53 48° N
